{"data":{"norad_id":43099,"intl_designator":"2018-002A","name":"SUPERVIEW-1 03","alt_names":[],"object_type":"PAYLOAD","status":"ACTIVE","operator":null,"country":"PRC","launch_date":"2018-01-09","launch_site_code":"TAISC","launch_vehicle":null,"mission":null,"orbit_class":"UNKNOWN","rcs_meters":null,"size_class":null,"mass_kg":null,"dimensions":null,"purposes":[],"wikipedia_slug":null,"has_3d_model":false,"image_url":null,"decayed_at":null,"tle_current":{"epoch":"2026-05-25T05:04:44.743872Z","epoch_age_seconds":63612,"freshness":"FRESH","line1":"1 43099U 18002A   26145.21162898  .00014147  00000+0  36189-3 0  9997","line2":"2 43099  97.3129 230.0989 0046175 263.0405  96.5587 15.38421760464834","mean_motion":15.3842176,"eccentricity":0.0046175,"inclination_deg":97.3129,"raan_deg":230.0989,"arg_perigee_deg":263.0405,"mean_anomaly_deg":96.5587,"bstar":0.00036189,"rev_number":46483,"period_min":93.602420184176,"perigee_km":419.24326564812,"apogee_km":482.30827508244,"semimajor_km":6828.9127703653,"source":"CELESTRAK","updated_at":"2026-05-25T13:37:55.764346Z"}}}